Wind_Speed
23 24 25 26 27 28 28 28 28 29 30 30 30 31 31 31 30 29 30 31 32 34 36 36 37 38 38 38 38 38 39 39 39 39 38 39 41 40 40 41 40 40
22 22 23 24 26 26 27 28 28 29 30 30 31 31 31 31 30 30 29 29 30 32 33 34 36 37 38 39 39 39 39 39 39 38 37 39 40 39 40 40 39 40
21 21 22 24 25 25 26 27 27 28 29 30 30 31 31 31 31 31 31 30 30 31 31 32 34 35 37 38 38 39 40 39 40 38 37 39 39 38 39 38 38 39
20 20 21 23 24 25 26 26 27 28 28 29 30 30 30 30 31 31 31 31 32 32 32 33 33 34 35 36 37 39 40 40 40 38 37 39 38 38 39 37 37 39
18 20 21 22 23 24 25 26 27 27 28 29 29 29 29 29 30 30 31 31 32 32 33 33 34 34 34 35 36 38 38 38 39 37 38 39 38 38 38 37 37 38
11 14 16 19 21 22 24 25 26 26 27 27 27 28 28 28 28 29 29 30 31 32 32 33 33 34 34 35 36 37 38 38 38 37 38 39 39 38 38 37 37 39
12 11 10 11 13 16 19 21 23 24 25 26 26 27 27 27 28 28 29 30 30 32 32 33 34 34 34 34 35 37 37 37 38 37 38 39 38 38 38 37 38 39
14 13 12 11 10 11 12 14 16 18 20 22 24 25 25 26 27 28 29 30 31 32 33 34 35 35 35 35 36 37 37 38 38 38 39 39 38 38 38 38 38 40
17 16 15 13 12 12 12 12 13 13 14 16 18 20 22 24 25 27 28 29 31 32 33 34 34 35 35 36 37 37 38 38 39 39 40 40 40 40 39 38 39 40
20 19 18 17 16 16 15 14 14 13 14 14 15 16 17 19 22 24 26 28 29 31 32 33 34 35 35 36 37 38 38 39 39 40 41 41 41 41 40 39 39 40
21 21 20 20 19 18 17 17 16 15 15 15 15 16 16 17 18 20 23 26 28 30 31 33 34 35 36 37 37 37 38 39 39 40 41 41 42 42 41 40 40 42
21 20 20 20 19 18 18 17 16 16 16 15 16 16 16 16 17 18 20 23 25 28 30 32 33 35 36 37 37 37 38 39 39 40 40 41 41 41 41 41 42 43
19 19 19 19 18 17 17 17 17 17 16 16 16 17 17 17 18 18 19 20 23 25 27 29 31 33 35 36 36 37 37 38 39 40 40 41 42 42 42 42 43 43
18 18 18 18 18 18 18 18 18 17 17 17 17 17 17 18 19 20 20 20 21 22 24 26 28 30 32 33 35 36 36 38 39 39 40 41 42 43 43 43 44 44
18 18 19 19 19 19 20 20 20 19 19 18 18 17 17 18 18 19 20 21 22 22 23 24 25 27 28 30 33 34 35 37 38 39 40 41 42 42 43 43 44 44
19 19 20 20 20 20 21 22 21 21 20 20 20 19 18 18 19 19 20 22 23 24 25 25 25 25 26 27 29 31 34 35 37 38 39 40 41 41 41 42 42 43
20 20 22 21 21 22 23 23 23 21 21 21 22 22 21 21 21 21 21 22 23 25 26 26 26 25 25 26 26 28 30 33 35 37 38 39 40 40 41 41 40 41
20 21 23 23 23 24 24 24 23 22 21 22 22 23 22 22 22 22 22 23 23 25 25 25 25 25 25 25 24 24 26 29 33 35 37 38 38 39 40 40 38 38
20 21 23 23 24 24 24 23 23 22 22 22 23 22 22 23 23 23 23 22 23 24 25 25 24 23 23 23 23 23 24 26 29 32 34 37 38 38 39 38 38 37
20 21 22 22 22 21 20 21 21 21 21 22 22 21 21 22 23 24 23 23 23 24 25 25 23 23 23 22 23 24 24 25 28 30 31 33 35 37 38 38 38 37
20 20 20 20 19 18 18 18 18 20 21 21 20 19 20 22 22 23 23 23 24 25 25 25 24 22 22 23 23 24 24 26 27 29 30 31 32 33 35 37 38 38
20 20 20 20 19 18 17 17 18 20 21 21 19 19 20 22 22 23 23 24 24 24 25 25 24 22 22 23 24 24 25 26 27 27 29 30 30 30 30 33 35 37
19 19 20 21 20 19 19 18 20 21 21 20 18 19 22 24 24 23 22 23 24 24 24 25 24 23 23 23 24 24 25 26 26 26 27 28 29 29 29 30 32 33
19 19 21 22 22 22 21 21 22 22 20 18 18 22 24 24 22 22 22 22 24 23 23 24 24 23 22 23 23 23 24 25 26 26 26 26 27 28 29 30 31 32
20 20 20 21 22 22 22 21 22 21 18 18 21 23 23 21 20 21 22 22 23 23 22 22 24 24 23 23 23 23 23 24 24 24 25 24 25 26 27 28 29 30
19 19 19 20 21 22 21 20 20 19 19 21 23 22 21 20 21 21 22 23 22 22 22 22 24 25 24 23 23 23 22 23 24 23 23 23 24 25 26 26 27 28
Wind_Direction
245 246 248 251 253 255 256 256 256 256 256 256 255 256 258 259 257 253 251 249 247 245 243 241 239 237 236 235 235 235 235 236 236 236 236 236 237 236 237 236 235 235
251 252 252 254 256 258 260 260 261 260 260 261 261 261 262 261 260 258 256 253 249 247 246 245 243 241 239 238 237 237 237 237 238 238 238 239 240 239 240 240 239 238
259 259 258 259 260 263 265 265 264 264 264 264 264 264 264 262 262 261 260 259 256 254 252 249 248 246 244 242 240 240 240 239 240 240 240 242 242 242 243 242 242 241
270 268 267 267 268 269 270 267 266 267 267 266 267 267 266 264 263 261 261 260 258 257 255 253 251 248 247 245 243 243 242 242 243 242 242 244 243 243 244 244 244 243
282 280 277 276 274 274 272 269 270 271 270 270 271 270 268 266 264 262 261 259 258 257 255 253 251 249 248 246 244 244 244 244 245 244 243 245 244 244 245 244 244 245
316 303 293 287 283 280 275 273 275 275 274 275 276 274 272 269 267 264 262 261 260 258 256 254 252 250 249 247 245 245 244 245 246 245 244 245 245 245 245 244 244 245
10 358 342 324 310 298 289 285 283 281 280 280 279 277 276 273 271 269 267 265 263 261 259 257 255 253 251 249 246 246 246 247 247 246 246 246 246 246 245 244 244 246
18 13 8 360 352 341 325 312 304 297 293 289 284 282 280 277 275 274 271 269 266 263 261 259 257 255 253 250 247 247 247 248 248 247 247 247 247 247 246 245 245 246
24 19 13 6 1 356 347 337 328 318 312 307 301 297 292 286 282 279 276 273 269 267 264 261 258 256 254 251 249 248 248 248 248 247 248 247 247 247 248 246 246 246
25 22 18 15 10 3 356 347 336 327 320 317 313 309 305 300 293 287 282 276 272 269 267 264 261 259 256 254 252 250 249 249 249 248 248 248 247 248 248 247 246 247
21 18 15 13 10 5 1 355 349 342 333 326 320 315 309 306 303 297 291 284 278 274 272 269 266 264 260 257 255 253 252 251 251 250 249 249 249 249 249 247 247 247
14 11 8 6 3 360 357 354 351 347 342 338 333 326 318 311 307 303 300 295 289 283 278 274 272 269 265 262 259 257 255 253 252 251 251 251 251 251 250 249 248 249
7 4 1 360 358 355 352 349 347 344 342 339 335 333 329 324 318 312 307 303 299 294 288 282 278 274 269 266 263 260 257 255 254 252 252 252 252 252 252 251 250 250
4 1 359 359 358 355 352 349 347 344 340 336 333 332 330 328 325 320 315 311 306 303 299 293 286 280 275 271 267 264 260 258 256 254 253 253 253 253 253 252 252 251
4 2 359 360 358 356 354 350 348 345 341 338 335 332 329 326 324 322 320 317 314 311 309 305 297 290 284 279 274 270 265 262 259 257 255 254 254 254 254 253 252 252
4 1 359 360 357 353 350 348 347 346 344 344 342 338 335 331 328 325 323 320 318 316 314 311 307 301 296 289 283 277 272 267 264 260 257 256 255 255 255 254 253 252
4 360 358 357 353 350 349 348 348 347 347 346 344 343 342 339 335 332 328 324 320 317 315 313 312 310 306 300 292 283 276 271 266 263 260 258 256 255 255 256 255 254
2 358 357 355 352 350 349 348 348 349 347 344 343 343 343 341 339 335 330 326 322 318 316 314 313 312 310 304 296 287 279 273 269 265 262 260 258 257 257 257 257 256
360 357 355 353 350 349 348 347 347 346 345 342 340 340 340 338 336 333 330 328 325 321 317 314 313 312 309 304 297 291 286 280 275 269 264 262 260 259 258 258 258 257
357 354 353 350 348 347 344 342 343 341 340 338 337 336 335 334 332 331 329 327 325 322 318 315 314 312 309 304 299 296 291 286 282 278 272 267 263 260 259 258 258 257
352 350 348 346 344 342 339 338 338 336 336 336 334 331 330 329 328 327 325 324 323 322 319 316 315 314 311 308 304 300 296 292 289 284 280 276 271 267 262 260 259 257
348 345 343 342 341 339 337 335 333 332 333 332 329 327 327 327 325 323 322 322 322 321 319 316 316 316 315 312 309 305 301 298 293 289 284 280 277 274 270 266 262 258
343 341 339 338 337 334 331 328 327 327 329 329 326 325 326 325 322 321 321 321 320 320 317 314 315 318 317 315 313 310 306 302 298 292 287 283 280 278 276 273 268 262
342 340 337 335 333 330 328 326 325 325 323 323 322 321 321 321 320 318 318 319 319 318 316 315 314 317 319 317 316 313 310 306 302 296 291 287 285 282 279 276 274 269
341 338 335 331 327 326 324 323 322 321 318 315 316 317 317 316 316 316 316 318 318 317 316 316 315 316 319 319 318 316 313 309 306 301 296 292 290 288 284 281 279 276
334 332 329 326 323 322 322 321 319 316 313 314 316 316 314 313 314 314 314 315 317 316 315 315 315 317 318 319 317 316 314 312 308 303 299 298 296 293 290 287 285 282
Height
756 757 757 758 759 759 760 761 761 761 762 762 762 763 763 764 764 765 765 766 767 767 768 770 771 772 773 775 776 777 777 778 778 779 780 780 779 780 780 780 781 781
756 756 756 756 757 758 758 759 759 759 759 760 760 761 761 762 762 762 762 763 764 764 765 766 767 768 769 770 772 773 773 774 774 775 776 775 775 776 776 776 778 778
755 755 755 755 755 755 756 756 757 757 757 758 758 759 759 760 760 760 760 761 761 761 762 763 763 765 766 766 768 768 768 769 769 771 772 771 771 772 772 773 774 774
754 754 754 753 753 754 754 754 755 755 755 755 755 756 756 757 757 758 758 758 758 759 759 759 760 761 762 763 764 764 764 764 765 767 767 766 767 768 768 770 770 770
754 753 753 752 752 752 752 752 753 753 753 753 753 754 754 754 754 755 755 755 755 755 755 756 756 757 758 759 759 759 760 760 761 763 763 761 763 764 764 766 766 765
752 752 751 751 751 751 751 751 751 751 751 751 751 751 751 751 751 751 752 752 752 752 752 752 753 753 754 755 755 755 756 756 757 758 758 757 759 760 760 762 761 761
750 750 750 750 750 750 749 750 750 750 750 749 749 749 749 749 749 749 749 749 749 749 749 749 749 749 750 751 751 751 752 753 753 754 754 753 754 755 756 757 757 756
750 749 749 749 748 748 748 748 748 748 748 748 747 747 747 747 746 746 746 746 746 745 745 746 746 746 747 747 747 747 748 749 749 750 749 749 750 750 751 753 753 752
750 749 749 749 748 748 747 747 747 746 746 746 745 745 745 745 744 744 744 743 743 742 742 742 742 743 743 743 743 744 744 744 745 746 745 745 746 745 747 748 748 747
750 750 749 749 748 748 747 746 746 745 744 744 743 743 742 742 742 742 742 741 740 740 739 739 739 739 740 739 739 740 740 740 741 741 741 741 741 741 742 743 743 742
751 751 750 749 748 748 747 746 745 744 743 742 742 741 740 740 740 739 739 738 738 737 737 737 736 736 736 735 736 736 736 737 737 737 737 737 737 737 737 738 738 737
752 752 751 750 749 748 746 745 744 743 742 741 740 739 738 738 737 737 737 736 735 735 735 734 734 734 733 732 733 733 733 733 733 733 733 732 732 732 733 733 733 732
753 752 752 751 749 748 746 745 743 742 741 740 739 738 737 736 735 734 734 733 733 733 732 732 732 731 730 730 730 730 730 729 729 729 728 728 728 727 727 727 727 727
753 752 751 750 749 747 746 744 742 741 740 738 737 736 735 734 733 732 731 731 730 730 729 729 729 728 728 728 727 727 727 726 725 725 724 723 723 722 722 722 721 722
753 752 751 749 748 746 744 743 741 740 739 737 736 734 733 732 731 730 729 728 727 727 726 726 726 726 726 726 725 724 724 722 722 721 720 719 718 717 717 716 716 716
752 751 750 748 747 745 744 742 740 739 737 736 734 733 732 730 729 729 727 726 725 724 724 724 723 723 723 723 722 721 720 719 718 717 716 715 714 713 712 711 711 711
751 750 748 747 746 744 742 740 739 737 736 734 733 731 730 729 728 727 726 725 723 722 722 721 721 721 721 720 719 719 718 716 714 713 712 711 710 708 707 707 707 707
751 749 747 746 744 742 741 739 738 736 735 734 732 731 729 728 727 726 725 724 722 721 720 719 719 719 718 717 717 716 715 713 711 709 708 706 705 704 703 703 703 703
750 749 747 745 743 742 740 739 737 736 735 733 732 731 729 728 727 725 724 723 721 720 718 717 717 717 716 715 714 713 712 710 708 706 703 702 701 700 699 699 699 699
750 748 747 745 744 742 741 740 738 737 735 734 732 731 729 727 726 724 723 722 720 718 717 716 715 715 714 713 711 710 709 707 705 702 700 698 696 695 695 695 694 695
749 748 747 745 744 743 741 740 738 737 735 733 732 730 729 727 726 724 722 721 719 717 715 714 713 712 711 710 708 707 705 704 701 699 696 694 693 692 691 690 690 690
749 747 746 744 743 742 740 739 737 736 734 732 731 730 728 726 725 723 721 719 718 716 714 712 711 710 709 707 706 704 702 700 698 696 693 691 689 689 688 686 685 685
748 746 744 743 742 740 739 738 736 735 733 732 730 728 727 725 723 722 720 718 716 715 713 710 709 708 707 705 703 702 700 698 695 693 690 688 686 685 685 683 681 681
747 745 743 741 740 739 738 736 735 733 732 731 729 727 726 724 722 720 719 717 715 713 711 709 707 706 705 703 701 700 698 695 693 690 687 685 683 682 681 679 678 677
745 743 742 741 739 738 737 735 734 732 731 730 728 726 724 723 721 719 717 715 714 711 710 708 705 704 703 701 700 698 696 694 691 688 685 683 681 679 677 676 675 673
744 743 742 740 738 737 735 734 732 731 729 728 726 724 722 721 719 717 715 713 712 710 708 706 704 702 701 699 698 696 694 692 690 687 684 681 679 677 674 673 672 671